Location: M?digepalle
(16.1753°N, 80.3496°E)
Time: 09:07:33
(UTC+00:00)

SWIFT - Pass Details

Date: 29 October 2020
Orbit: 545 x 560 km, 20.6° (Epoch: 27 November)

Event Time Altitude Azimuth Distance (km) Brightness Sun altitude
Rises 12:47:42 0° 278° (W) 2,723 7.4 -9.7°
Reaches altitude 10° 12:50:02 10° 272° (W) 1,829 6.4 -10.3°
Maximum altitude 12:54:09 47° 198° (SSW) 734 3.2 -11.3°
Drops below altitude 10° 12:58:15 10° 124° (SE) 1,826 4.6 -12.2°
Enters shadow 12:58:25 - 123° (ESE) 1,888 4.6 -12.3°
